Weather Roundup
Issued by NWS Chicago, IL

Home | Current Version | Previous Version | Graphics & Text | Print | Product List | Glossary On
Versions: 1 2 3 4 5 6 7 8 9 10 11 12 13 14 15 16 17 18 19 20 21 22 23 24 25 26 27 28 29 30 31 32 33 34 35 36 37 38 39 40 41 42 43 44 45 46 47 48 49 50
000
NZUS59 KLOT 252204
HRRLOT

CHICAGO AREA WEATHER ROUNDUP
NATIONAL WEATHER SERVICE CHICAGO/ROMEOVILLE IL
500 PM CDT MON SEP 25 2017

NOTE: "FAIR" INDICATES FEW OR NO CLOUDS BELOW 12,000 FEET WITH NO
SIGNIFICANT WEATHER AND/OR OBSTRUCTIONS TO VISIBILITY.

* THESE STATIONS ARE NOT UNDER NWS QUALITY CONTROL. THEY ALSO MAY NOT
  REPORT WEATHER SUCH AS PRECIPITATION OR FOG.

ILZ005-006-012>014-019>023-252300-
NORTHEAST ILLINOIS

CITY           SKY/WX    TMP DP  RH WIND       PRES   REMARKS
OHARE          MOSUNNY   89  55  31 E15       29.91S HX  87
MIDWAY         MOSUNNY   88  56  33 E16       29.92S HX  86
AURORA         SUNNY     89  59  36 SE10      29.92S HX  88
LANSING*       SUNNY     88  60  39 SE7       29.94R HX  87
JOLIET*        SUNNY     90  60  37 SE6       29.92R HX  89
WAUKEGAN       SUNNY     82  64  54 SE12      29.93S HX  83
DUPAGE AIRPORT SUNNY     90  57  32 S9        29.91S HX  88
WHEELING       SUNNY     88  58  36 SE10      29.93S HX  87
MORRIS*        MOSUNNY   90  58  34 SE8       29.91S HX  89
NORTHERLY ISL    N/A     79  64  60 E10         N/A  HX  81
$$

WIZ051-052-058>065-066-070>072-252300-
SOUTHEAST WISCONSIN

CITY           SKY/WX    TMP DP  RH WIND       PRES   REMARKS
MILWAUKEE      MOSUNNY   85  60  42 SE14      29.93S HX  85
KENOSHA*       SUNNY     85  58  39 SE13      29.94S HX  84
RACINE*        SUNNY     83  63  50 S13       29.95S HX  84
WAUKESHA       PTSUNNY   84  55  37 SE12      29.94S HX  83
$$

INZ001>003-010>013-019-020-252300-
NORTHWEST INDIANA

CITY           SKY/WX    TMP DP  RH WIND       PRES   REMARKS
GARY*          MOSUNNY   90  46  22 SE8       29.94S HX  86
MICHIGAN CITY* NOT AVBL
RENSSELAER*    NOT AVBL
VALPARAISO     SUNNY     89  55  31 SE8       29.95F HX  87
$$

LMZ740>746-252300-
SOUTHERN LAKE MICHIGAN

STATION/POSITION TIME  SKY/WX   TEMP WIND        PRES    VSBY
                                AIR  DIR/SP/G
                 (UTC)          (F)  (DEG/KT/KT) (MB)    (MI)
HARRISON CRIB    2140            80  110/ 15/ 16   N/A
BURNHAM HARBOR   2200            79                N/A
CALUMET HARBOR   2130            82   60/ 10/ 12 1013.0F
BURNS HARBOR     2140            85   90/  6/ 11 1013.9F
MICHIGAN CITY    2140            82   50/  4/  5   N/A
$$

ABBREVIATIONS USED IN REMARKS
   TC - TEMPERATURE IN CELSIUS
  WCI - WIND CHILL INDEX
   HX - HEAT INDEX
  VSB - VISIBILITY
$$



USA.gov is the U.S. government's official web portal to all federal, state and local government web resources and services.